• în România
  • Lista ţărilor
  • Pe 7 zile
  • Temperatura apei
  • Hartă satelitară
  • Meteo pe hartă
  • Widget-uri
  • user-avatar
    Intrare

    Meteo pe oră la Schegolevo

    Astăzi, 15 Noiembrie, Joi

    Timp Temperatura Precipitaţii Vânt Presiune Umiditate
    00:00 -3°C° 0 mm 2 m/s 751 mmHg 82%
    01:00 -3°C° 0 mm 2 m/s 751 mmHg 83%
    02:00 -1°C° 0 mm 1 m/s 752 mmHg 86%
    03:00 -1°C° 0 mm 1 m/s 752 mmHg 87%
    04:00 -1°C° 0 mm 1 m/s 752 mmHg 88%
    05:00 -1°C° 0 mm 1 m/s 753 mmHg 89%
    06:00 -1°C° 0 mm 1 m/s 753 mmHg 89%
    07:00 -1°C° 0 mm 1 m/s 754 mmHg 89%
    08:00 0°C° 0 mm 1 m/s 755 mmHg 89%
    09:00 0°C° 0 mm 1 m/s 755 mmHg 87%
    10:00 +1°C° 0 mm 1 m/s 756 mmHg 85%
    11:00 +1°C° 0 mm 1 m/s 756 mmHg 83%
    12:00 +1°C° 0 mm 1 m/s 756 mmHg 83%
    13:00 +1°C° 0 mm 1 m/s 757 mmHg 83%
    14:00 +2°C° 0 mm 1 m/s 757 mmHg 84%
    15:00 +1°C° 0 mm 1 m/s 758 mmHg 86%
    16:00 0°C° 0 mm 1 m/s 758 mmHg 88%
    17:00 0°C° 0 mm 1 m/s 758 mmHg 91%
    18:00 0°C° 0 mm 1 m/s 759 mmHg 91%
    19:00 0°C° 0 mm 1 m/s 759 mmHg 91%
    20:00 0°C° 0 mm 1 m/s 759 mmHg 91%
    21:00 0°C° 0 mm 1 m/s 760 mmHg 91%
    22:00 -1°C° 0 mm 1 m/s 760 mmHg 91%
    23:00 -1°C° 0 mm 1 m/s 760 mmHg 92%

    Mâine, 16 Noiembrie, Vineri

    Timp Temperatura Precipitaţii Vânt Presiune Umiditate
    00:00 -1°C° 0 mm 1 m/s 761 mmHg 92%
    01:00 -1°C° 0 mm 1 m/s 761 mmHg 92%
    02:00 -1°C° 0 mm 1 m/s 761 mmHg 92%
    03:00 -1°C° 0 mm 1 m/s 761 mmHg 92%
    04:00 -1°C° 0 mm 1 m/s 761 mmHg 92%
    05:00 -1°C° 0 mm 1 m/s 762 mmHg 92%
    06:00 -1°C° 0 mm 1 m/s 762 mmHg 93%
    07:00 -2°C° 0 mm 1 m/s 762 mmHg 93%
    08:00 -2°C° 0 mm 1 m/s 762 mmHg 93%
    09:00 -1°C° 0 mm 1 m/s 763 mmHg 90%
    10:00 0°C° 0 mm 1 m/s 763 mmHg 87%
    11:00 -1°C° 0 mm 2 m/s 763 mmHg 84%
    12:00 +1°C° 0 mm 2 m/s 763 mmHg 85%
    13:00 +2°C° 0 mm 1 m/s 763 mmHg 86%
    14:00 +2°C° 0 mm 1 m/s 763 mmHg 87%
    15:00 -1°C° 0 mm 2 m/s 763 mmHg 89%
    16:00 -2°C° 0 mm 2 m/s 763 mmHg 92%
    17:00 -3°C° 0 mm 2 m/s 763 mmHg 94%
    18:00 -3°C° 0 mm 2 m/s 762 mmHg 94%
    19:00 -3°C° 0 mm 2 m/s 762 mmHg 94%
    20:00 -3°C° 0 mm 2 m/s 762 mmHg 94%
    21:00 -3°C° 0 mm 2 m/s 762 mmHg 94%
    22:00 -3°C° 0 mm 2 m/s 762 mmHg 94%
    23:00 -3°C° 0 mm 2 m/s 762 mmHg 94%

    Poimâine, 17 Noiembrie, Sâmbătă

    Timp Temperatura Precipitaţii Vânt Presiune Umiditate
    00:00 -4°C° 0 mm 3 m/s 762 mmHg 93%
    01:00 -2°C° 0 mm 3 m/s 761 mmHg 93%
    02:00 -2°C° 0 mm 3 m/s 761 mmHg 92%
    03:00 -2°C° 0 mm 3 m/s 761 mmHg 92%
    04:00 -2°C° 0 mm 3 m/s 760 mmHg 91%
    05:00 -2°C° 0 mm 3 m/s 760 mmHg 91%
    06:00 -1°C° 0 mm 3 m/s 759 mmHg 90%
    07:00 -1°C° 0 mm 3 m/s 759 mmHg 89%
    08:00 -1°C° 0 mm 3 m/s 758 mmHg 89%
    09:00 -2°C° 0.1 mm 4 m/s 758 mmHg 88%
    10:00 -1°C° 0.1 mm 4 m/s 757 mmHg 87%
    11:00 -1°C° 0.1 mm 4 m/s 757 mmHg 86%
    12:00 -1°C° 0.4 mm 4 m/s 756 mmHg 87%
    13:00 -1°C° 0.4 mm 4 m/s 755 mmHg 88%
    14:00 -1°C° 0.4 mm 4 m/s 755 mmHg 90%
    15:00 -1°C° 0.2 mm 4 m/s 754 mmHg 90%
    16:00 -1°C° 0.2 mm 4 m/s 753 mmHg 90%
    17:00 -1°C° 0.2 mm 4 m/s 752 mmHg 90%
    18:00 -1°C° 0.1 mm 4 m/s 751 mmHg 90%
    19:00 -1°C° 0.1 mm 4 m/s 751 mmHg 91%
    20:00 -1°C° 0.1 mm 4 m/s 750 mmHg 91%
    21:00 -1°C° 0.1 mm 4 m/s 749 mmHg 92%
    22:00 0°C° 0.1 mm 4 m/s 748 mmHg 93%
    23:00 +1°C° 0.1 mm 3 m/s 748 mmHg 94%

    18 Noiembrie, Duminică

    Timp Temperatura Precipitaţii Vânt Presiune Umiditate
    00:00 +1°C° 0.1 mm 3 m/s 747 mmHg 94%
    01:00 +1°C° 0.1 mm 3 m/s 746 mmHg 95%
    02:00 +1°C° 0.1 mm 3 m/s 746 mmHg 95%
    03:00 +1°C° 0.3 mm 3 m/s 745 mmHg 95%
    04:00 +1°C° 0.3 mm 3 m/s 745 mmHg 96%
    05:00 +2°C° 0.3 mm 2 m/s 744 mmHg 96%
    06:00 +2°C° 0.2 mm 2 m/s 744 mmHg 96%
    07:00 +1°C° 0.2 mm 2 m/s 744 mmHg 97%
    08:00 +2°C° 0.2 mm 1 m/s 744 mmHg 97%
    09:00 +3°C° 0.3 mm 1 m/s 744 mmHg 97%
    10:00 +3°C° 0.3 mm 1 m/s 744 mmHg 97%
    11:00 +3°C° 0.3 mm 1 m/s 744 mmHg 97%
    12:00 +3°C° 0.2 mm 1 m/s 745 mmHg 97%
    13:00 +2°C° 0.2 mm 2 m/s 745 mmHg 97%
    14:00 +2°C° 0.2 mm 2 m/s 746 mmHg 97%
    15:00 +2°C° 0.2 mm 2 m/s 746 mmHg 97%
    16:00 +1°C° 0.2 mm 2 m/s 747 mmHg 97%
    17:00 +1°C° 0.2 mm 2 m/s 747 mmHg 97%
    18:00 +1°C° 0.3 mm 2 m/s 747 mmHg 97%
    19:00 +1°C° 0.3 mm 2 m/s 748 mmHg 96%
    20:00 +1°C° 0.3 mm 2 m/s 748 mmHg 96%
    21:00 0°C° 0.3 mm 3 m/s 749 mmHg 96%
    22:00 0°C° 0.3 mm 3 m/s 749 mmHg 96%
    23:00 0°C° 0.3 mm 3 m/s 749 mmHg 96%

    19 Noiembrie, Luni

    Timp Temperatura Precipitaţii Vânt Presiune Umiditate
    00:00 0°C° 0.2 mm 3 m/s 750 mmHg 95%
    01:00 0°C° 0.2 mm 3 m/s 750 mmHg 95%
    02:00 0°C° 0.2 mm 3 m/s 750 mmHg 95%
    03:00 0°C° 0.2 mm 3 m/s 751 mmHg 95%
    04:00 0°C° 0.2 mm 3 m/s 751 mmHg 95%
    05:00 0°C° 0.2 mm 3 m/s 751 mmHg 94%
    06:00 0°C° 0.2 mm 3 m/s 752 mmHg 94%
    07:00 0°C° 0.2 mm 3 m/s 752 mmHg 94%
    08:00 0°C° 0.2 mm 3 m/s 753 mmHg 94%
    09:00 0°C° 0.1 mm 3 m/s 753 mmHg 93%
    10:00 0°C° 0.1 mm 3 m/s 754 mmHg 93%
    11:00 0°C° 0.1 mm 3 m/s 754 mmHg 93%
    12:00 0°C° 0.1 mm 3 m/s 754 mmHg 92%
    13:00 0°C° 0.1 mm 3 m/s 755 mmHg 92%
    14:00 0°C° 0.1 mm 3 m/s 755 mmHg 92%
    15:00 0°C° 0.1 mm 3 m/s 755 mmHg 92%
    16:00 -1°C° 0.1 mm 3 m/s 755 mmHg 93%
    17:00 -1°C° 0.1 mm 3 m/s 756 mmHg 93%
    18:00 -1°C° 0 mm 2 m/s 756 mmHg 93%
    19:00 -1°C° 0 mm 2 m/s 756 mmHg 94%
    20:00 -2°C° 0 mm 2 m/s 756 mmHg 94%
    21:00 -2°C° 0 mm 2 m/s 756 mmHg 94%
    22:00 -2°C° 0 mm 2 m/s 757 mmHg 95%
    23:00 -3°C° 0 mm 2 m/s 757 mmHg 95%

    20 Noiembrie, Marţi

    Timp Temperatura Precipitaţii Vânt Presiune Umiditate
    00:00 -3°C° 0 mm 2 m/s 757 mmHg 95%
    01:00 -2°C° 0 mm 1 m/s 757 mmHg 95%
    02:00 -3°C° 0 mm 1 m/s 757 mmHg 95%
    03:00 -3°C° 0 mm 1 m/s 757 mmHg 93%
    04:00 -3°C° 0 mm 1 m/s 756 mmHg 92%
    05:00 -4°C° 0 mm 1 m/s 756 mmHg 91%
    06:00 -4°C° 0 mm 1 m/s 756 mmHg 89%
    07:00 -4°C° 0 mm 1 m/s 756 mmHg 88%
    08:00 -4°C° 0 mm 1 m/s 756 mmHg 86%
    09:00 -3°C° 0 mm 1 m/s 756 mmHg 82%
    10:00 -2°C° 0 mm 1 m/s 756 mmHg 77%
    11:00 -3°C° 0 mm 2 m/s 755 mmHg 73%
    12:00 -1°C° 0 mm 1 m/s 755 mmHg 74%
    13:00 -1°C° 0 mm 1 m/s 755 mmHg 76%
    14:00 -1°C° 0 mm 1 m/s 755 mmHg 78%
    15:00 -2°C° 0 mm 1 m/s 754 mmHg 79%
    16:00 -3°C° 0 mm 1 m/s 754 mmHg 81%
    17:00 -3°C° 0 mm 1 m/s 754 mmHg 82%
    18:00 -3°C° 0 mm 1 m/s 754 mmHg 82%
    19:00 -3°C° 0 mm 1 m/s 753 mmHg 81%
    20:00 -3°C° 0 mm 1 m/s 753 mmHg 81%
    21:00 -3°C° 0 mm 1 m/s 753 mmHg 80%
    22:00 -3°C° 0 mm 1 m/s 753 mmHg 80%
    23:00 -4°C° 0 mm 1 m/s 753 mmHg 80%
    Arată mai mult